Вернуться в каталог

STARLINK-30509

АктивенСвязьVLEO
NORAD 57977·PAYLOAD·🇺🇸 United States

Запущен Sep 30, 2023 с Cape Canaveral Space Force Station

Loading…

Ближайшие Пролёты (ближайшие 24 часа)

TLE

СвежийSource: CelesTrak SupGP

Эпоха: Sep 14, 2026, 14:34 UTC

1 57977C 23151P   26257.60743056  .00016546  00000+0  59928-3 0  2574
2 57977  43.0023   3.7701 0001362 262.5628 184.3152 15.27571345    15

Отслеживайте STARLINK-30509 в реальном времени с AllMySat

Download on the App Store